Regional Weather Roundup
Issued by NWS

Home | Current Version | Previous Version | Graphics & Text | Print | Product List | Glossary Off
Versions: 1 2 3 4 5 6 7 8 9 10 11 12 13 14 15 16 17 18 19 20 21 22 23 24 25 26 27 28 29 30 31 32 33 34 35 36 37 38 39 40 41 42 43 44 45 46 47 48 49 50

267
ASUS43 KDMX 170701
RWRIA

WEATHER ROUNDUP FOR IOWA
NATIONAL WEATHER SERVICE DES MOINES IA
100 AM CST TUE JAN 17 2017

NOTE: "FAIR" INDICATES FEW OR NO CLOUDS BELOW 12,000 FEET WITH NO
SIGNIFICANT WEATHER AND/OR OBSTRUCTIONS TO VISIBILITY.

* - THESE STATIONS ARE NOT NWS STATIONS...THUS NOT UNDER NWS
QUALITY CONTROL.  THEY ALSO DO NOT REPORT WEATHER SUCH
AS PRECIPITATION OR FOG.

IAZ001>003-012>014-020>022-031>034-043>046-170800-
   NORTHWEST IOWA

CITY           SKY/WX    TMP DP  RH WIND       PRES   REMARKS
CARROLL *      CLOUDY    34  34 100 NW12      29.92R FOG     WCI  25
CHEROKEE *     CLOUDY    32  32 100 N6        29.95S FOG     WCI  26
DENISON *      CLOUDY    32  32 100 NW12      29.92R WCI  23
LE MARS *      CLOUDY    28  28 100 NW10      29.98F FOG     WCI  19
ORANGE CITY *  CLOUDY    30  30 100 N6        29.96S FOG     WCI  24
SHELDON *      CLOUDY    30  30 100 NW13      29.94S FOG     WCI  20
SIOUX CITY     CLOUDY    27  23  85 NW12      29.99S WCI  17
SPENCER        CLOUDY    31  30  96 N12       29.93F FOG     WCI  22
STORM LAKE *   CLOUDY    32  32 100 NW15      29.92S FOG     WCI  22
$$

IAZ055>058-069>071-079>083-090>094-170800-
   SOUTHWEST IOWA

CITY           SKY/WX    TMP DP  RH WIND       PRES   REMARKS
ATLANTIC *     CLOUDY    34  32  93 NW14      29.92F WCI  24
AUDUBON *      CLOUDY    34  30  86 NW3       29.93R
CLARINDA *     CLOUDY    34  34 100 NW8G14    29.96R WCI  27
COUNCIL BLFS * CLOUDY    32  32 100 NW10G22   29.95R FOG     WCI  24
CRESTON *      CLOUDY    32  32 100 NW14      29.91R FOG     WCI  22
HARLAN  *      CLOUDY    32  32 100 N12G17    29.96F WCI  23
LAMONI         CLOUDY    33  32  96 NW10      29.88S WCI  25
RED OAK *      CLOUDY    34  34 100 NW7       29.95R FOG     WCI  28
SHENANDOAH *   CLOUDY    34  32  93 NW7       29.96S WCI  28
$$

IAZ047>049-059>061-072>074-084-170800-
   CENTRAL IOWA

CITY           SKY/WX    TMP DP  RH WIND       PRES   REMARKS
AMES           CLOUDY    33  33 100 NW9       29.88S FOG     WCI  25
ANKENY *       CLOUDY    34  32  93 NW8       29.89R FOG     WCI  27
BOONE *        FOG       32  32 100 NW9       29.87S VSB 1   WCI  24
CHARITON *     CLOUDY    34  32  93 NW12      29.87R WCI  25
DES MOINES     DRZL/FOG  34  33  96 NW9       29.89R VSB 1/4 WCI  27
GRINNELL*      FOG       32  32  99 NW8       29.84S VSB 1/2 WCI  25
KNOXVILLE *    FOG       34  32  93 NW10      29.86R VSB 1/2 WCI  26
MARSHALLTOWN   FOG       32  32 100 NW6       29.85S VSB 1/4 WCI  26
NEWTON *       FOG       32  32 100 NW8       29.85R VSB 1/4 WCI  25
PELLA *        FOG       33  33  99 NW13      29.88R VSB 1   WCI  24
$$

IAZ004>006-015-016-023>025-035-036-170800-
   NORTH CENTRAL IOWA

CITY           SKY/WX    TMP DP  RH WIND       PRES   REMARKS
ALGONA *       CLOUDY    32  32 100 N12       29.91S FOG     WCI  23
CLARION *      CLOUDY    32  32 100 N9        29.89R FOG     WCI  24
ESTHERVILLE    CLOUDY    31  31 100 N10       29.91F FOG     WCI  22
FORT DODGE *   CLOUDY    32  28  86 CALM      29.91S
MASON CITY     CLOUDY    32  31  96 N9        29.88F FOG     WCI  24
FOREST CITY *  CLOUDY    32  32 100 N9        29.89S FOG     WCI  24
WEBSTER CITY * MIX PCPN  32  32 100 NW12      29.87S WCI  23
$$

IAZ007>011-017>019-026>030-037>042-050>054-066-170800-
   NORTHEAST IOWA

CITY           SKY/WX    TMP DP  RH WIND       PRES   REMARKS
CEDAR RAPIDS   FOG       33  33 100 NW6       29.81S VSB 1/2 WCI  28
CHARLES CITY * CLOUDY    32  32 100 MISG      29.85F FOG
CLINTON *      FOG       35  34  96 N8        29.80F VSB 1   WCI  29
DECORAH *      FOG       32  32 100 N3        29.84S VSB 1/4
DUBUQUE        FOG       33  33 100 NE9       29.81S VSB 1/4 WCI  25
MONTICELLO *   CLOUDY    34  34 100 CALM      29.81S
OELWEIN *      FOG       32  32 100 NE8       29.83F VSB 1   WCI  25
WATERLOO       FOG       33  32  96 N7        29.84S VSB 3/4 WCI  27
$$

IAZ064-065-067-068-078-170800-
   EAST CENTRAL IOWA

CITY           SKY/WX    TMP DP  RH WIND       PRES   REMARKS
DAVENPORT      FOG       35  35 100 CALM      29.81S VSB 1/2
IOWA CITY      CLOUDY    36  35  96 NW3       29.83F
MUSCATINE *    CLOUDY    36  36 100 CALM      29.83R
QUAD CITIES    CLOUDY    36  35  96 CALM      29.80S
$$

IAZ062-063-075>077-085>089-095>099-170800-
   SOUTHEAST IOWA

CITY           SKY/WX    TMP DP  RH WIND       PRES   REMARKS
BURLINGTON     FOG       37  37 100 SW6       29.81R VSB 1/4 WCI  32
FAIRFIELD *    FOG       36  36 100 W3        29.83R VSB 1/4
FORT MADISON * CLOUDY    43  41  93 SW9       29.83R FOG
KEOKUK *       CLOUDY    43  43 100 W12       29.83S FOG
OSKALOOSA *    CLOUDY    33  33  99 W9        29.85R FOG     WCI  26
CENTERVILLE *  CLOUDY    32  32 100 CALM      29.88S FOG
OTTUMWA        FOG       35  34  96 W9        29.85R VSB 3/4 WCI  28
WASHINGTON *   FOG       36  36 100 CALM      29.83S VSB 1/4
$$

ABBREVIATIONS USED IN REMARKS
   TC - TEMPERATURES IN CELSIUS
  WCI - WIND CHILL INDEX
   HX - HEAT INDEX
  VSB - VISIBILITY
$$





USA.gov is the U.S. government's official web portal to all federal, state and local government web resources and services.